Location: Endfield
(51.6667°N, 0.0667°W)
Time: 21:26:45
(UTC+00:00)

Cosmos 2263 - Pass Details

Date: 19 May 2024
Orbit: 830 x 865 km, 70.9° (Epoch: 16 June)

Event Time Altitude Azimuth Distance (km) Brightness Sun altitude
Rises 21:06:52 0° 329° (NNW) 3,407 9.4 -9.3°
Reaches altitude 10° 21:09:20 10° 332° (NNW) 2,474 8.2 -9.5°
Maximum altitude 21:15:01 71° 57° (ENE) 902 4.3 -10.1°
Enters shadow 21:20:01 14° 140° (SE) 2,226 5.7 -10.5°
